User: anonymous   Login
Location: Unspecified
(0.0000°N, 0.0000°E)
Time: 02:20:05
(UTC+00:00)
Language:

Vela 6A - Orbit

View from above orbital plane
View from above orbital plane
View from above satellite
View from above satellite

Ground track
Ground track

The orbit data is extracted from the following two-line orbital elements,

1 04366U 70027A   16149.43985383  .00000939  00000-0  00000+0 0  9999
2 04366  47.5389 217.9853 6317664  76.6638   0.0774  0.21476000 29831
Epoch (UTC): 28 May 2016 10:33:23
Eccentricity: 0.6317664
inclination: 47.5389°
perigee height: 36995 km
apogee height: 185821 km
right ascension of ascending node: 217.9853°
argument of perigee: 76.6638°
revolutions per day: 0.21476000
mean anomaly at epoch: 0.0774°
orbit number at epoch: 2983

The dashed part of the orbit path shows where the satellite is in the earth's shadow,  

DLR